Weather History for Edwards AFB, CA

Change the Weather History Date:

Friday, December 21, 2012

  Actual Average Record
Temperature  
Mean Temperature 30 °F -  
Max Temperature 46 °F 55 °F 68 °F (2000)
Min Temperature 14 °F 26 °F 14 °F (2012)
Degree Days  
Heating Degree Days 35    
Moisture  
Dew Point 10 °F    
Average Humidity 47    
Maximum Humidity 65    
Minimum Humidity 26    
Precipitation  
Precipitation 0.00 in - - ()
Sea Level Pressure  
Sea Level Pressure 30.18 in    
Wind  
Wind Speed 3 mph (WNW)    
Max Wind Speed 6 mph    
Max Gust Speed -    
Visibility 10 miles    
Events      
Averages and records for this station are not official NWS values.
T = Trace of Precipitation, MM = Missing Value Source: NWS Daily Summary

Daily Weather History Graph

Daily Weather History Graph

Search for Another Location

Airport:

Trip Planner

Search our weather history database for the weather conditions in past years. The results will help you decide how hot, cold, wet, or windy it might be!

Date:

Astronomy

Dec. 21, 2012 Rise Set
Actual Time 6:55 AM PST 4:44 PM PST
Civil Twilight 6:27 AM PST 5:12 PM PST
Nautical Twilight 5:55 AM PST 5:44 PM PST
Astronomical Twilight 5:25 AM PST 6:14 PM PST
Moon 12:25 PM PST (12/21) 12:56 AM PST (12/21)
Length of Visible Light 10h 44m
Length of Day
9h 48m
Waxing Gibbous, 66% of the Moon is Illuminated
Dec 21
Waxing Gibbous
Dec 28
Full
Jan 4
Last Quarter
Jan 11
New
Jan 18
First Quarter

Hourly Weather History & Observations

Time (PST) Temp. Windchill Dew Point Humidity Pressure Visibility Wind Dir Wind Speed Gust Speed Precip Events Conditions
12:58 AM 22.3 °F 16.1 °F 7.7 °F 54% 30.22 in 10.0 mi West 4.6 mph - N/A   Clear
1:58 AM 18.9 °F - 6.6 °F 59% 30.22 in 10.0 mi Calm Calm - N/A   Clear
2:58 AM 19.0 °F 13.9 °F 5.4 °F 55% 30.21 in 10.0 mi WNW 3.5 mph - N/A   Clear
3:58 AM 16.9 °F 11.5 °F 5.9 °F 62% 30.20 in 10.0 mi West 3.5 mph - N/A   Clear
4:58 AM 14.9 °F - 5.0 °F 65% 30.21 in 10.0 mi WSW 2.3 mph - N/A   Clear
5:58 AM 15.1 °F 9.4 °F 4.8 °F 64% 30.22 in 50.0 mi West 3.5 mph - N/A   Clear
6:58 AM 14.9 °F - 5.0 °F 65% 30.23 in 95.0 mi West 2.3 mph - N/A   Clear
7:58 AM 19.9 °F - 7.3 °F 58% 30.24 in 90.0 mi West 2.3 mph - N/A   Clear
8:58 AM 23.4 °F - 9.1 °F 55% 30.24 in 90.0 mi Variable 2.3 mph - N/A   Partly Cloudy
9:58 AM 30.0 °F - 13.6 °F 51% 30.24 in 90.0 mi Variable 2.3 mph - N/A   Partly Cloudy
10:58 AM 35.4 °F - 12.2 °F 38% 30.22 in 90.0 mi NW 1.2 mph - N/A   Mostly Cloudy
11:58 AM 40.5 °F 38.4 °F 13.6 °F 34% 30.18 in 90.0 mi East 3.5 mph - N/A   Mostly Cloudy
12:58 PM 43.3 °F - 11.7 °F 28% 30.15 in 90.0 mi ENE 2.3 mph - N/A   Mostly Cloudy
1:58 PM 44.8 °F - 11.5 °F 26% 30.13 in 90.0 mi Variable 2.3 mph - N/A   Mostly Cloudy
2:58 PM 46.2 °F - 12.6 °F 26% 30.12 in 90.0 mi NNE 2.3 mph - N/A   Mostly Cloudy
3:58 PM 45.7 °F - 13.6 °F 28% 30.12 in 90.0 mi NNW 2.3 mph - N/A   Mostly Cloudy
4:58 PM 43.3 °F 40.7 °F 14.2 °F 31% 30.13 in 60.0 mi NW 4.6 mph - N/A   Mostly Cloudy
5:58 PM 34.5 °F - 12.6 °F 40% 30.14 in 40.0 mi Calm Calm - N/A   Scattered Clouds
6:58 PM 34.2 °F 29.0 °F 12.6 °F 41% 30.16 in 40.0 mi North 5.8 mph - N/A   Partly Cloudy
7:58 PM 31.6 °F 26.0 °F 11.1 °F 43% 30.16 in 40.0 mi North 5.8 mph - N/A   Partly Cloudy
8:58 PM 31.5 °F - 10.2 °F 41% 30.16 in 40.0 mi Calm Calm - N/A   Clear
9:58 PM 24.6 °F 18.8 °F 8.1 °F 49% 30.16 in 40.0 mi West 4.6 mph - N/A   Clear
10:58 PM 21.7 °F 14.3 °F 7.3 °F 54% 30.16 in 10.0 mi WSW 5.8 mph - N/A   Clear
11:58 PM 23.5 °F 16.4 °F 11.1 °F 59% 30.15 in 10.0 mi WSW 5.8 mph - N/A   Partly Cloudy